Location: Ciserano
(45.5833°N, 9.6000°E)
Time: 00:38:23
(UTC+00:00)

FALCON 9 DEB - Pass Details

Date: 22 April 2021
Orbit: 369 x 385 km, 53.0° (Epoch: 10 May)

Event Time Altitude Azimuth Distance (km) Brightness Sun altitude
Rises 21:16:09 0° 269° (W) 2,215 7.2 -25.5°
Reaches altitude 10° 21:18:22 10° 283° (WNW) 1,368 6.2 -25.8°
Enters shadow 21:19:31 18° 298° (WNW) 997 5.6 -25.9°
